WA3WZR Weather Reports


time (UTC)temp
F
wind
direction
speed
knots
gust
knots
rain 1hr
in
rain 24hr
in
rain mn
in
humidity
%
barometer
mb
20260507231358 58 289 3.5 6.1 0.00 0.01 0.01 47 1011.1
20260507230837 58 266 1.7 10.4 0.00 0.01 0.01 47 1011.0
20260507230358 58 294 3.5 10.4 0.00 0.01 0.01 46 1011.1
20260507225836 58 265 3.5 11.3 0.00 0.01 0.01 45 1011.1
20260507225334 59 237 2.6 7.0 0.00 0.01 0.01 46 1011.0
20260507224856 59 340 0.9 11.3 0.00 0.01 0.01 45 1011.0
20260507224335 59 290 1.7 11.3 0.00 0.01 0.01 45 1010.9
20260507223834 59 288 1.7 7.0 0.00 0.01 0.01 45 1010.9
20260507223353 59 281 2.6 8.7 0.00 0.01 0.01 45 1010.8
20260507222852 59 279 2.6 8.7 0.00 0.01 0.01 44 1010.8
20260507222350 59 342 1.7 7.8 0.00 0.01 0.01 46 1010.8
20260507221831 59 288 0.9 7.8 0.00 0.01 0.01 47 1010.6
20260507221331 60 302 3.5 7.8 0.00 0.01 0.01 44 1010.6
20260507220832 60 298 4.3 8.7 0.00 0.01 0.01 45 1010.6
20260507220331 60 271 4.3 8.7 0.00 0.01 0.01 45 1010.6
20260507215829 60 263 0.9 6.1 0.00 0.01 0.01 46 1010.4
20260507215329 59 246 1.7 6.1 0.00 0.01 0.01 46 1010.4
20260507214850 59 321 2.6 6.1 0.00 0.01 0.01 47 1010.4
20260507214330 59 230 2.6 10.4 0.00 0.01 0.01 45 1010.4
20260507213829 59 279 5.2 10.4 0.00 0.01 0.01 45 1010.5
20260507213330 59 254 2.6 7.8 0.00 0.01 0.01 47 1010.4
20260507212828 60 256 2.6 7.8 0.00 0.01 0.01 45 1010.4
20260507212329 60 263 4.3 7.8 0.00 0.01 0.01 45 1010.4
20260507211831 60 269 1.7 9.6 0.00 0.01 0.01 46 1010.4
20260507211330 60 287 3.5 9.6 0.00 0.01 0.01 44 1010.4
20260507210849 60 236 4.3 8.7 0.00 0.01 0.01 46 1010.3
20260507210330 60 267 3.5 7.8 0.00 0.01 0.01 45 1010.3
20260507205828 60 271 2.6 8.7 0.00 0.01 0.01 44 1010.2
20260507205327 60 297 4.3 11.3 0.00 0.01 0.01 45 1010.2
20260507204828 61 270 5.2 11.3 0.00 0.01 0.01 43 1010.3
20260507204326 61 276 2.6 9.6 0.00 0.01 0.01 47 1010.2
20260507203825 61 272 6.1 11.3 0.00 0.01 0.01 44 1010.3
20260507203323 60 284 5.2 7.8 0.00 0.01 0.01 48 1010.1
20260507202823 60 342 2.6 7.8 0.00 0.01 0.01 46 1010.1
20260507202324 60 298 4.3 8.7 0.00 0.01 0.01 46 1010.4
20260507201823 60 271 2.6 8.7 0.00 0.01 0.01 49 1010.3
20260507201323 59 236 3.5 8.7 0.00 0.01 0.01 49 1010.2
20260507200823 59 277 2.6 7.0 0.00 0.01 0.01 49 1010.3
20260507200324 59 231 2.6 7.0 0.00 0.01 0.01 46 1010.4
20260507195825 60 323 2.6 8.7 0.00 0.01 0.01 50 1010.5
20260507195345 60 298 4.3 8.7 0.00 0.01 0.01 46 1010.6
20260507194824 60 306 4.3 7.8 0.00 0.01 0.01 46 1010.6
20260507194325 61 243 2.6 6.1 0.00 0.01 0.01 47 1010.7
20260507193825 61 294 1.7 6.1 0.00 0.01 0.01 47 1010.8
20260507193325 61 255 3.5 8.7 0.00 0.01 0.01 46 1010.8
20260507192825 61 292 3.5 8.7 0.00 0.01 0.01 46 1010.9
20260507192344 60 288 4.3 7.8 0.00 0.01 0.01 51 1010.8
20260507191824 59 319 2.6 7.0 0.00 0.01 0.01 50 1010.8
20260507191322 59 270 2.6 7.0 0.00 0.01 0.01 51 1010.8
20260507190823 59 298 4.3 7.0 0.00 0.01 0.01 49 1010.9
20260507190322 60 226 2.6 7.0 0.00 0.01 0.01 49 1010.9
20260507185823 60 240 4.3 7.8 0.00 0.01 0.01 48 1010.9
20260507185321 61 305 3.5 8.7 0.00 0.01 0.01 47 1010.9
20260507184842 62 248 5.2 8.7 0.00 0.01 0.01 47 1011.0
20260507184320 62 324 2.6 8.7 0.00 0.01 0.01 48 1011.0
20260507183839 63 266 2.6 8.7 0.00 0.01 0.01 53 1011.0
20260507183340 62 281 2.6 7.8 0.00 0.01 0.01 50 1011.0
20260507182839 62 111 1.7 7.8 0.00 0.01 0.01 48 1011.1
20260507182400 62 269 2.6 7.8 0.00 0.01 0.01 50 1011.2
20260507181838 61 140 2.6 7.8 0.00 0.01 0.01 54 1011.2
20260507181338 60 283 2.6 7.8 0.00 0.01 0.01 52 1011.1
20260507180836 60 272 2.6 6.1 0.00 0.01 0.01 54 1011.2
20260507180336 60 327 0.9 6.1 0.00 0.01 0.01 50 1011.3
20260507175856 61 275 1.7 7.8 0.00 0.01 0.01 51 1011.3
20260507175337 60 350 2.6 7.8 0.00 0.01 0.01 53 1011.3
20260507174839 60 314 3.5 7.0 0.00 0.01 0.01 51 1011.4
20260507174359 61 244 2.6 8.7 0.00 0.01 0.01 51 1011.4
20260507173858 60 152 1.7 8.7 0.00 0.01 0.01 52 1011.5
20260507173336 60 275 1.7 7.0 0.00 0.01 0.01 53 1011.7
20260507172834 60 5 2.6 7.8 0.00 0.01 0.01 52 1011.8
20260507172334 59 251 5.2 9.6 0.00 0.01 0.01 52 1011.9
20260507171834 59 128 3.5 9.6 0.00 0.01 0.01 51 1011.9
20260507171334 59 291 1.7 7.8 0.00 0.01 0.01 49 1011.9
20260507170335 59 248 1.7 9.6 0.00 0.01 0.01 51 1012.1
20260507165835 59 278 1.7 7.8 0.00 0.01 0.01 48 1012.1
20260507165335 60 308 2.6 7.0 0.00 0.01 0.01 50 1012.1
20260507164838 60 279 1.7 9.6 0.00 0.01 0.01 51 1012.1
20260507164337 60 265 3.5 9.6 0.00 0.01 0.01 51 1012.2
20260507163837 59 281 1.7 7.8 0.00 0.01 0.01 53 1012.2
20260507163337 58 236 2.6 4.3 0.00 0.01 0.01 58 1012.3
20260507162838 58 196 0.0 5.2 0.00 0.01 0.01 54 1012.3
20260507162339 58 211 0.9 7.0 0.00 0.01 0.01 53 1012.3
20260507161857 57 321 3.5 7.0 0.00 0.01 0.01 57 1012.4
20260507161335 57 320 0.9 6.1 0.00 0.01 0.01 58 1012.4
20260507160835 57 332 3.5 6.1 0.00 0.01 0.01 52 1012.5
20260507160336 57 309 3.5 6.1 0.00 0.01 0.01 53 1012.5
20260507155836 57 327 1.7 6.1 0.00 0.02 0.01 52 1012.5
20260507155336 58 320 1.7 7.8 0.00 0.02 0.01 51 1012.6
20260507154836 59 117 0.9 7.8 0.00 0.02 0.01 52 1012.6
20260507154334 58 256 1.7 8.7 0.00 0.02 0.01 54 1012.7
20260507153834 58 271 4.3 9.6 0.00 0.02 0.01 55 1012.6
20260507153350 57 221 3.5 9.6 0.00 0.02 0.01 58 1012.7
20260507152829 56 279 0.0 4.3 0.00 0.02 0.01 56 1012.7
20260507152351 56 232 0.0 4.3 0.00 0.02 0.01 57 1012.7
20260507151328 57 238 1.7 5.2 0.00 0.02 0.01 57 1012.9
20260507150847 57 311 1.7 5.2 0.00 0.02 0.01 55 1013.0
20260507150327 58 254 1.7 6.1 0.00 0.02 0.01 59 1013.0
20260507145825 57 217 1.7 7.8 0.00 0.04 0.01 57 1013.1
20260507145325 58 311 2.6 7.8 0.00 0.04 0.01 57 1013.1
20260507144823 58 24 1.7 8.7 0.00 0.04 0.01 56 1013.3
20260507144344 57 298 4.3 8.7 0.00 0.04 0.01 59 1013.3
20260507143822 57 132 1.7 6.1 0.00 0.04 0.01 59 1013.2
20260507143322 56 296 0.9 6.1 0.00 0.04 0.01 57 1013.3
20260507142841 55 190 0.9 4.3 0.00 0.04 0.01 61 1013.4
20260507142341 55 257 0.0 6.1 0.00 0.04 0.01 57 1013.5
20260507141822 55 255 3.5 6.1 0.00 0.04 0.01 60 1013.6
20260507141342 54 147 0.0 7.0 0.00 0.04 0.01 61 1013.6
20260507140821 54 138 1.7 7.0 0.00 0.04 0.01 64 1013.9
20260507140322 53 199 0.0 4.3 0.00 0.04 0.01 68 1013.9
20260507135838 53 227 0.0 5.2 0.00 0.07 0.01 66 1013.9
20260507135337 52 272 0.0 5.2 0.00 0.07 0.01 68 1014.0
20260507134858 52 292 0.0 4.3 0.00 0.07 0.01 69 1014.1
20260507134357 51 130 0.9 5.2 0.00 0.07 0.01 76 1014.2
20260507133856 51 279 0.9 5.2 0.00 0.07 0.01 77 1014.1
20260507133337 50 200 0.0 1.7 0.00 0.07 0.01 79 1014.2
20260507132835 49 296 0.0 1.7 0.00 0.07 0.01 83 1014.2
20260507132334 49 303 0.0 3.5 0.00 0.07 0.01 85 1014.3
20260507131835 48 136 0.0 3.5 0.00 0.07 0.01 85 1014.3
20260507131335 48 234 0.9 4.3 0.00 0.07 0.01 89 1014.2
20260507130836 47 301 0.9 4.3 0.00 0.07 0.01 92 1014.2
20260507130337 46 254 0.0 1.7 0.00 0.07 0.01 95 1014.2
20260507125836 46 286 0.0 1.7 0.00 0.10 0.01 96 1014.3
20260507125335 45 284 0.0 3.5 0.00 0.10 0.01 96 1014.3
20260507124856 45 284 0.9 1.7 0.00 0.10 0.01 97 1014.3
20260507124334 44 284 0.0 1.7 0.00 0.10 0.01 97 1014.3
20260507123832 44 284 0.0 1.7 0.00 0.10 0.01 97 1014.4
20260507123333 43 285 0.0 1.7 0.00 0.10 0.01 97 1014.5
20260507122834 43 313 0.0 0.9 0.00 0.10 0.01 97 1014.5
20260507122334 43 313 0.0 0.9 0.01 0.10 0.01 97 1014.6
20260507121835 43 313 0.0 0.0 0.01 0.10 0.01 97 1014.5
20260507121333 42 313 0.0 0.9 0.01 0.10 0.01 97 1014.5
20260507120850 42 313 0.0 0.0 0.01 0.10 0.01 96 1014.5
20260507120331 42 313 0.0 0.0 0.01 0.10 0.01 96 1014.5
20260507115850 41 313 0.0 0.9 0.01 0.12 0.01 96 1014.4
20260507115330 41 313 0.0 0.0 0.01 0.12 0.01 96 1014.5
20260507114832 40 313 0.0 0.0 0.01 0.12 0.01 95 1014.5
20260507114330 40 313 0.0 0.0 0.01 0.12 0.01 95 1014.5
20260507113831 40 314 0.0 0.0 0.01 0.12 0.01 95 1014.4
20260507113331 40 314 0.0 0.0 0.01 0.12 0.01 95 1014.4
20260507112831 40 314 0.0 0.0 0.01 0.12 0.01 95 1014.3
20260507112332 39 314 0.0 0.0 0.00 0.11 0.00 94 1014.3
20260507111835 39 314 0.0 0.0 0.00 0.11 0.00 94 1014.2
20260507111330 39 314 0.0 0.0 0.00 0.11 0.00 94 1014.1
20260507110852 39 314 0.0 0.0 0.00 0.11 0.00 94 1014.0
20260507110333 39 314 0.0 0.0 0.00 0.11 0.00 94 1014.0
20260507105847 39 314 0.0 0.0 0.00 0.25 0.00 94 1013.9
20260507105327 39 314 0.0 0.0 0.00 0.25 0.00 93 1013.9
20260507104829 39 314 0.0 0.0 0.00 0.25 0.00 93 1013.9
20260507104350 39 314 0.0 0.0 0.00 0.25 0.00 93 1013.9
20260507103849 39 314 0.0 0.0 0.00 0.25 0.00 93 1013.9
20260507103348 39 314 0.0 0.0 0.00 0.25 0.00 92 1013.8
20260507102825 39 314 0.0 0.0 0.00 0.25 0.00 92 1013.9
20260507102324 39 314 0.0 0.0 0.00 0.25 0.00 92 1013.7
20260507101827 39 314 0.0 0.0 0.00 0.25 0.00 92 1013.8
20260507101326 40 314 0.0 0.0 0.00 0.25 0.00 92 1013.7
20260507100322 40 314 0.0 0.0 0.00 0.25 0.00 92 1013.5
20260507095821 40 314 0.0 0.0 0.00 0.32 0.00 91 1013.5
20260507095320 40 314 0.0 0.0 0.00 0.32 0.00 91 1013.5
20260507094841 40 314 0.0 0.0 0.00 0.32 0.00 91 1013.5
20260507094321 40 314 0.0 0.0 0.00 0.32 0.00 91 1013.6
20260507093840 40 314 0.0 0.0 0.00 0.32 0.00 90 1013.5
20260507093321 40 314 0.0 0.0 0.00 0.32 0.00 90 1013.4
20260507092840 40 314 0.0 0.0 0.00 0.32 0.00 90 1013.4
20260507092400 40 314 0.0 0.0 0.00 0.32 0.00 90 1013.4
20260507091823 41 314 0.0 0.0 0.00 0.32 0.00 89 1013.4
20260507091321 41 314 0.0 0.0 0.00 0.32 0.00 89 1013.6
20260507090841 41 314 0.0 0.0 0.00 0.32 0.00 89 1013.7
20260507090321 41 314 0.0 0.0 0.00 0.32 0.00 89 1013.7
20260507085821 41 314 0.0 0.0 0.00 0.41 0.00 89 1013.7
20260507085321 41 314 0.0 0.0 0.00 0.41 0.00 88 1013.7
20260507084822 41 314 0.0 0.0 0.00 0.41 0.00 88 1013.7
20260507084322 42 314 0.0 0.0 0.00 0.41 0.00 88 1013.7
20260507083840 42 314 0.0 0.0 0.00 0.41 0.00 87 1013.7
20260507083322 42 314 0.0 0.0 0.00 0.41 0.00 87 1013.7
20260507082821 42 314 0.0 0.0 0.00 0.41 0.00 86 1013.7
20260507082321 42 314 0.0 0.0 0.00 0.41 0.00 86 1013.7
20260507081823 43 314 0.0 0.0 0.00 0.41 0.00 85 1013.6
20260507080822 43 314 0.0 0.0 0.00 0.41 0.00 85 1013.5
20260507080324 43 314 0.0 0.0 0.00 0.41 0.00 84 1013.5
20260507075823 44 314 0.0 0.0 0.00 0.43 0.00 84 1013.5
20260507075323 44 314 0.0 0.0 0.00 0.43 0.00 84 1013.4
20260507074822 44 314 0.0 0.0 0.00 0.43 0.00 83 1013.5
20260507074340 44 314 0.0 0.0 0.00 0.43 0.00 83 1013.5
20260507073840 45 314 0.0 0.0 0.00 0.43 0.00 82 1013.5
20260507073400 45 314 0.0 0.0 0.00 0.43 0.00 81 1013.6
20260507072838 45 314 0.0 0.0 0.00 0.43 0.00 80 1013.5
20260507072338 46 314 0.0 0.0 0.00 0.43 0.00 79 1013.5
20260507071839 46 314 0.0 0.0 0.00 0.43 0.00 78 1013.5
20260507071354 46 314 0.0 0.0 0.00 0.43 0.00 78 1013.5
20260507070834 46 314 0.0 0.0 0.00 0.43 0.00 78 1013.5
20260507070354 46 314 0.0 0.0 0.00 0.43 0.00 78 1013.4
20260507065853 47 314 0.0 0.0 0.00 0.46 0.00 79 1013.4
20260507065333 47 314 0.0 0.0 0.00 0.46 0.00 80 1013.4
20260507064833 47 314 0.0 0.0 0.00 0.46 0.00 80 1013.4
20260507064332 47 314 0.0 0.0 0.00 0.46 0.00 80 1013.4
20260507063831 47 314 0.0 0.0 0.00 0.46 0.00 81 1013.4
20260507063334 47 314 0.0 0.0 0.00 0.46 0.00 83 1013.4
20260507062835 48 314 0.0 0.0 0.00 0.46 0.00 83 1013.4
20260507062331 48 314 0.0 0.0 0.00 0.46 0.00 83 1013.5
20260507061834 48 314 0.0 0.0 0.00 0.46 0.00 83 1013.7
20260507061352 48 314 0.0 0.0 0.00 0.46 0.00 83 1013.7
20260507060831 48 314 0.0 0.0 0.00 0.46 0.00 83 1013.7
20260507060333 48 314 0.0 0.0 0.00 0.46 0.00 83 1013.7
20260507055831 48 314 0.0 0.0 0.00 0.49 0.00 83 1013.9
20260507055330 48 314 0.0 0.0 0.00 0.49 0.00 83 1014.0
20260507054830 48 314 0.0 0.0 0.00 0.49 0.00 82 1014.0
20260507054329 48 314 0.0 0.0 0.00 0.49 0.00 82 1014.0
20260507053829 48 314 0.0 0.0 0.00 0.49 0.00 82 1014.0
20260507053330 48 314 0.0 0.0 0.00 0.49 0.00 82 1014.1
20260507052830 48 314 0.0 0.0 0.00 0.49 0.00 80 1014.1
20260507052331 48 314 0.0 0.0 0.00 0.49 0.00 80 1014.2
20260507051848 49 314 0.0 0.0 0.00 0.49 0.00 82 1014.2
20260507051346 49 314 0.0 0.0 0.00 0.49 0.00 81 1014.2
20260507050825 49 314 0.0 0.0 0.00 0.49 0.00 81 1014.1
20260507050325 49 314 0.0 0.0 0.00 0.49 0.00 80 1014.1
20260507045845 49 314 0.0 0.0 0.00 0.51 0.00 80 1014.1
20260507045324 49 314 0.0 0.0 0.00 0.51 0.00 81 1014.1
20260507044846 49 314 0.0 0.0 0.00 0.51 0.00 80 1014.1
20260507044323 49 314 0.0 0.0 0.00 0.51 0.00 79 1014.1
20260507043822 49 314 0.0 0.0 0.00 0.51 0.00 80 1014.1
20260507043322 49 314 0.0 0.0 0.00 0.51 0.00 80 1014.1
20260507042822 49 314 0.0 0.0 0.00 0.51 0.00 80 1014.0
20260507042323 49 314 0.0 0.0 0.00 0.51 0.00 80 1014.0
20260507041823 49 314 0.0 0.0 0.00 0.51 0.00 80 1013.9
20260507041323 49 314 0.0 0.0 0.00 0.51 0.00 80 1014.0
20260507040823 49 314 0.0 0.0 0.00 0.51 0.00 81 1014.0
20260507040324 49 314 0.0 0.0 0.00 0.51 0.00 81 1014.0
20260507035834 49 314 0.0 0.0 0.00 0.51 0.51 79 1014.0
20260507035355 49 314 0.0 0.0 0.00 0.51 0.51 80 1014.0
20260507034837 50 314 0.0 0.0 0.00 0.51 0.51 80 1013.9
20260507034357 50 314 0.0 0.0 0.00 0.51 0.51 80 1014.0
20260507033835 50 314 0.0 0.0 0.00 0.51 0.51 77 1013.9
20260507033338 51 314 0.0 0.0 0.00 0.51 0.51 1014.1
20260507032835 52 314 0.0 0.0 0.00 0.51 0.51 1013.9
20260507032335 52 314 0.0 0.0 0.00 0.51 0.51 78 1014.0
20260507031838 51 314 0.0 0.0 0.00 0.51 0.51 79 1014.0
20260507031338 50 314 0.0 0.0 0.00 0.51 0.51 84 1013.8
20260507030838 50 314 0.0 0.0 0.00 0.51 0.51 83 1013.6
20260507030321 50 314 0.0 0.0 0.00 0.51 0.51 82 1013.5
20260507025821 50 314 0.0 0.0 0.00 0.51 0.51 79 1013.5
20260507025322 50 314 0.0 0.0 0.00 0.51 0.51 79 1013.7
20260507024823 50 314 0.0 0.0 0.00 0.51 0.51 79 1013.4
20260507024343 50 314 0.0 0.0 0.00 0.51 0.51 79 1013.4
20260507023820 51 314 0.0 0.0 0.00 0.51 0.51 79 1013.4
20260507023343 51 314 0.0 0.0 0.00 0.51 0.51 80 1013.3
20260507022842 51 314 0.0 0.0 0.00 0.51 0.51 79 1013.2
20260507022401 51 314 0.0 0.0 0.00 0.51 0.51 79 1013.4
20260507021821 51 314 0.0 0.0 0.00 0.51 0.51 77 1013.4
20260507021342 51 314 0.0 0.0 0.00 0.51 0.51 78 1013.4
20260507020839 51 314 0.0 0.0 0.00 0.51 0.51 80 1013.3
20260507020322 51 314 0.0 0.0 0.00 0.51 0.51 80 1013.2
20260507015840 51 314 0.0 0.9 0.00 0.51 0.51 80 1013.1
20260507015339 51 314 0.0 0.9 0.00 0.51 0.51 81 1013.0
20260507014821 51 314 0.0 0.9 0.00 0.51 0.51 82 1013.0
20260507014322 51 314 0.0 1.7 0.00 0.51 0.51 83 1012.8
20260507013823 52 314 0.0 1.7 0.00 0.51 0.51 84 1012.8
20260507013326 52 301 0.0 0.9 0.00 0.51 0.51 85 1012.6
20260507012827 52 299 0.0 0.0 0.00 0.51 0.51 86 1012.7
20260507012326 52 299 0.0 0.9 0.00 0.51 0.51 86 1012.6
20260507011828 52 299 0.0 0.9 0.00 0.51 0.51 86 1012.5
20260507011327 53 295 0.0 0.0 0.00 0.51 0.51 87 1012.4
20260507010825 53 295 0.0 0.0 0.00 0.51 0.51 88 1012.4
20260507010327 53 295 0.0 0.0 0.00 0.51 0.51 88 1012.4
20260507005826 53 295 0.0 0.0 0.00 0.51 0.51 88 1012.3
20260507005326 53 295 0.0 0.0 0.00 0.51 0.51 87 1012.5
20260507004828 53 295 0.0 0.0 0.00 0.51 0.51 87 1012.5
20260507004347 53 295 0.0 0.0 0.00 0.51 0.51 86 1012.6
20260507003826 53 295 0.0 0.0 0.00 0.51 0.51 85 1012.6
20260507003328 53 295 0.0 0.0 0.00 0.51 0.51 86 1012.6
20260507002828 53 295 0.0 0.0 0.00 0.51 0.51 85 1012.6
20260507002328 53 295 0.0 0.0 0.00 0.51 0.51 85 1012.7
20260507001829 53 295 0.0 0.0 0.00 0.51 0.51 84 1012.9
20260507001329 53 295 0.0 0.0 0.00 0.51 0.51 83 1012.9
20260507000830 54 295 0.0 0.0 0.00 0.51 0.51 83 1013.1
20260507000332 54 295 0.0 0.0 0.00 0.51 0.51 83 1013.2
20260506235831 54 295 0.0 0.0 0.00 0.51 0.51 83 1013.0
20260506235331 54 295 0.0 0.0 0.00 0.51 0.51 83 1012.7
20260506234834 54 295 0.0 0.0 0.00 0.51 0.51 84 1012.5
20260506234334 54 295 0.0 0.0 0.00 0.51 0.51 84 1012.4
20260506233836 54 295 0.0 0.0 0.00 0.51 0.51 83 1012.4
20260506233338 54 295 0.0 0.0 0.00 0.51 0.51 82 1012.7
20260506232836 54 295 0.0 0.0 0.00 0.51 0.51 81 1012.6
20260506232336 54 295 0.0 0.0 0.00 0.51 0.51 81 1012.5
20260506231859 54 295 0.0 0.9 0.00 0.51 0.51 82 1012.4